Change the Weather History Date:

Monday, May 6, 2013

  Actual Average (KJLN) Record (KJLN)
Temperature  
Mean Temperature 53 °F 64 °F  
Max Temperature 60 °F 75 °F 90 °F (1952)
Min Temperature 46 °F 53 °F 33 °F (1992)
Degree Days  
Heating Degree Days 12 3  
Month to date heating degree days 22  
Since 1 July heating degree days 4025  
Cooling Degree Days 0 3  
Month to date cooling degree days 14  
Year to date cooling degree days 68  
Growing Degree Days 3 (Base 50)    
Moisture  
Dew Point 49 °F    
Average Humidity 93    
Maximum Humidity 100    
Minimum Humidity 72    
Precipitation  
Precipitation 0.00 in 0.20 in 3.02 in (1973)
Month to date precipitation 1.17  
Year to date precipitation 13.41  
Sea Level Pressure  
Sea Level Pressure 30.05 in    
Wind  
Wind Speed 8 mph (NW)    
Max Wind Speed 12 mph    
Max Gust Speed 17 mph    
Visibility 6 miles    
Events Fog    
T = Trace of Precipitation, MM = Missing Value Source: NWS Daily Summary

Daily Weather History Graph

Daily Weather History Graph

Search for Another Location

Airport or City:

Trip Planner

Search our weather history database for the weather conditions in past years. The results will help you decide how hot, cold, wet, or windy it might be!

Date:

Astronomy

May. 06, 2013 Rise Set
Actual Time 6:16 AM CDT 8:09 PM CDT
Civil Twilight 5:48 AM CDT 8:37 PM CDT
Nautical Twilight 5:13 AM CDT 9:12 PM CDT
Astronomical Twilight 4:37 AM CDT 9:49 PM CDT
Moon 4:13 AM CDT (5/6) 5:14 PM CDT (5/6)
Length of Visible Light 14h 49m
Length of Day
13h 53m
Waning Crescent, 11% of the Moon is Illuminated
May 6
Waning Crescent
May 9
New
May 17
First Quarter
May 24
Full
May 31
Last Quarter

Hourly Weather History & Observations

Time (CDT) Temp. Windchill Dew Point Humidity Pressure Visibility Wind Dir Wind Speed Gust Speed Precip Events Conditions
12:15 AM 50.0 °F - 46.4 °F 87% 30.05 in 10.0 mi NW 9.2 mph - N/A   Overcast
12:35 AM 50.0 °F - 46.4 °F 87% 30.04 in 7.0 mi WNW 10.4 mph - N/A   Overcast
12:55 AM 48.2 °F - 46.4 °F 93% 30.04 in 7.0 mi NW 11.5 mph - N/A   Overcast
1:15 AM 46.4 °F 42.4 °F 46.4 °F 100% 30.04 in 7.0 mi NNW 8.1 mph - N/A   Overcast
1:35 AM 46.4 °F 42.9 °F 46.4 °F 100% 30.04 in 7.0 mi NNW 6.9 mph - N/A   Overcast
1:55 AM 46.4 °F 42.4 °F 46.4 °F 100% 30.03 in 5.0 mi NW 8.1 mph - N/A   Overcast
2:15 AM 46.4 °F 43.5 °F 46.4 °F 100% 30.03 in 5.0 mi NNW 5.8 mph - N/A   Overcast
2:35 AM 48.2 °F - 46.4 °F 93% 30.03 in 5.0 mi NNW 8.1 mph - N/A   Overcast
2:55 AM 46.4 °F 41.9 °F 46.4 °F 100% 30.03 in 4.0 mi NNW 9.2 mph - N/A   Overcast
3:15 AM 46.4 °F 42.4 °F 46.4 °F 100% 30.03 in 4.0 mi NNW 8.1 mph - N/A   Overcast
3:35 AM 46.4 °F 42.9 °F 46.4 °F 100% 30.03 in 3.0 mi North 6.9 mph - N/A   Overcast
3:55 AM 46.4 °F 42.4 °F 46.4 °F 100% 30.02 in 2.5 mi NW 8.1 mph - N/A   Overcast
4:15 AM 46.4 °F 42.4 °F 46.4 °F 100% 30.02 in 2.0 mi NNW 8.1 mph - N/A   Overcast
4:35 AM 46.4 °F 41.9 °F 46.4 °F 100% 30.02 in 1.5 mi NW 9.2 mph - N/A   Overcast
4:55 AM 46.4 °F 41.9 °F 46.4 °F 100% 30.02 in 1.2 mi NW 9.2 mph - N/A   Overcast
5:15 AM 46.4 °F 41.1 °F 46.4 °F 100% 30.03 in 1.2 mi NW 11.5 mph - N/A   Overcast
5:55 AM 46.4 °F 41.9 °F 46.4 °F 100% 30.03 in 2.0 mi NNW 9.2 mph 17.3 mph N/A   Overcast
6:15 AM 46.4 °F 41.5 °F 46.4 °F 100% 30.04 in 1.8 mi NNW 10.4 mph - N/A   Overcast
6:35 AM 46.4 °F 41.5 °F 46.4 °F 100% 30.05 in 0.8 mi North 10.4 mph - N/A   Overcast
6:55 AM 46.4 °F 42.4 °F 46.4 °F 100% 30.05 in 0.8 mi NW 8.1 mph - N/A   Overcast
7:15 AM 46.4 °F 41.9 °F 46.4 °F 100% 30.05 in 0.5 mi NNW 9.2 mph - N/A Fog Fog
7:35 AM 46.4 °F 41.9 °F 46.4 °F 100% 30.05 in 0.5 mi NNW 9.2 mph - N/A Fog Fog
7:55 AM 46.4 °F 41.9 °F 46.4 °F 100% 30.06 in 0.5 mi NNW 9.2 mph - N/A Fog Fog
8:15 AM 48.2 °F - 48.2 °F 100% 30.06 in 0.8 mi NNW 6.9 mph - N/A   Overcast
8:35 AM 48.2 °F - 48.2 °F 100% 30.07 in 1.2 mi NNW 8.1 mph - N/A   Overcast
8:55 AM 50.0 °F - 50.0 °F 100% 30.07 in 1.5 mi NNW 9.2 mph - N/A   Overcast
9:15 AM 50.0 °F - 50.0 °F 100% 30.07 in 1.5 mi North 9.2 mph - N/A   Overcast
9:35 AM 50.0 °F - 50.0 °F 100% 30.08 in 2.0 mi North 10.4 mph - N/A   Overcast
9:55 AM 50.0 °F - 50.0 °F 100% 30.08 in 2.5 mi North 10.4 mph - N/A   Overcast
10:15 AM 50.0 °F - 50.0 °F 100% 30.09 in 2.5 mi North 10.4 mph - N/A   Overcast
10:35 AM 50.0 °F - 50.0 °F 100% 30.09 in 2.0 mi North 6.9 mph - N/A   Overcast
10:55 AM 50.0 °F - 50.0 °F 100% 30.09 in 3.0 mi NNW 6.9 mph - N/A   Overcast
11:15 AM 51.8 °F - 50.0 °F 94% 30.09 in 5.0 mi NNW 8.1 mph - N/A   Overcast
11:35 AM 51.8 °F - 50.0 °F 94% 30.09 in 5.0 mi NNW 8.1 mph - N/A   Overcast
11:55 AM 51.8 °F - 50.0 °F 94% 30.09 in 5.0 mi NW 9.2 mph - N/A   Overcast
12:15 PM 51.8 °F - 50.0 °F 94% 30.09 in 4.0 mi NW 8.1 mph - N/A   Overcast
12:35 PM 51.8 °F - 50.0 °F 94% 30.08 in 4.0 mi NW 6.9 mph - N/A   Overcast
12:55 PM 51.8 °F - 50.0 °F 94% 30.08 in 4.0 mi NNW 9.2 mph - N/A   Overcast
1:15 PM 51.8 °F - 50.0 °F 94% 30.08 in 5.0 mi NNW 8.1 mph - N/A   Overcast
1:35 PM 53.6 °F - 50.0 °F 88% 30.08 in 5.0 mi NNW 8.1 mph - N/A   Overcast
1:55 PM 53.6 °F - 50.0 °F 88% 30.08 in 7.0 mi NNW 8.1 mph - N/A   Overcast
2:15 PM 53.6 °F - 50.0 °F 88% 30.07 in 7.0 mi NW 6.9 mph - N/A   Overcast
2:35 PM 53.6 °F - 50.0 °F 88% 30.07 in 7.0 mi NW 6.9 mph - N/A   Overcast
2:55 PM 55.4 °F - 50.0 °F 82% 30.07 in 7.0 mi NNW 3.5 mph - N/A   Overcast
3:15 PM 55.4 °F - 50.0 °F 82% 30.06 in 7.0 mi NW 6.9 mph - N/A   Overcast
3:35 PM 55.4 °F - 50.0 °F 82% 30.05 in 7.0 mi NNW 6.9 mph - N/A   Overcast
3:55 PM 55.4 °F - 51.8 °F 88% 30.05 in 7.0 mi NW 4.6 mph - N/A   Overcast
4:15 PM 55.4 °F - 50.0 °F 82% 30.05 in 7.0 mi NW 5.8 mph - N/A   Overcast
4:35 PM 57.2 °F - 50.0 °F 77% 30.04 in 10.0 mi NW 5.8 mph - N/A   Overcast
4:55 PM 59.0 °F - 51.8 °F 77% 30.04 in 10.0 mi North 4.6 mph - N/A   Overcast
5:15 PM 59.0 °F - 51.8 °F 77% 30.03 in 10.0 mi NNW 4.6 mph - N/A   Scattered Clouds
5:55 PM 60.8 °F - 51.8 °F 72% 30.03 in 10.0 mi WNW 6.9 mph - N/A   Clear
6:15 PM 59.0 °F - 51.8 °F 77% 30.03 in 10.0 mi NW 4.6 mph - N/A   Clear
6:35 PM 59.0 °F - 51.8 °F 77% 30.03 in 10.0 mi NW 6.9 mph - N/A   Clear
6:55 PM 59.0 °F - 51.8 °F 77% 30.03 in 10.0 mi WNW 8.1 mph - N/A   Clear
7:15 PM 59.0 °F - 51.8 °F 77% 30.03 in 10.0 mi NW 6.9 mph - N/A   Clear
7:35 PM 57.2 °F - 51.8 °F 82% 30.03 in 10.0 mi West 5.8 mph - N/A   Clear
7:55 PM 55.4 °F - 51.8 °F 88% 30.03 in 10.0 mi West 5.8 mph - N/A   Clear
8:15 PM 53.6 °F - 50.0 °F 88% 30.04 in 10.0 mi WNW 3.5 mph - N/A   Clear
8:35 PM 53.6 °F - 50.0 °F 88% 30.05 in 10.0 mi WNW 3.5 mph - N/A   Clear
8:55 PM 53.6 °F - 50.0 °F 88% 30.05 in 10.0 mi West 3.5 mph - N/A   Clear
9:15 PM 53.6 °F - 50.0 °F 88% 30.06 in 10.0 mi West 3.5 mph - N/A   Clear
9:35 PM 51.8 °F - 50.0 °F 94% 30.07 in 10.0 mi West 4.6 mph - N/A   Clear
9:55 PM 53.6 °F - 50.0 °F 88% 30.07 in 10.0 mi Calm Calm - N/A   Clear
10:15 PM 51.8 °F - 50.0 °F 94% 30.08 in 10.0 mi Calm Calm - N/A   Clear
10:35 PM 50.0 °F - 48.2 °F 94% 30.08 in 7.0 mi WSW 3.5 mph - N/A   Clear
11:15 PM 48.2 °F - 48.2 °F 100% 30.08 in 3.0 mi SSW 3.5 mph - N/A   Clear
11:35 PM 50.0 °F - 48.2 °F 94% 30.08 in 5.0 mi Calm Calm - N/A   Clear
11:55 PM 50.0 °F - 50.0 °F 100% 30.08 in 5.0 mi Calm Calm - N/A   Clear